Year,Month,Day,Hour,Minute,Value (Times are PST for windspeed in km/hr)
2011,07,07,00,00,0.00
2011,07,07,00,01,0.00
2011,07,07,00,02,0.00
2011,07,07,00,03,0.30
2011,07,07,00,04,1.90
2011,07,07,00,05,2.30
2011,07,07,00,06,2.10
2011,07,07,00,07,0.00
2011,07,07,00,08,0.00
2011,07,07,00,09,0.00
2011,07,07,00,10,0.00
2011,07,07,00,11,0.00
2011,07,07,00,12,0.00
2011,07,07,00,13,0.00
2011,07,07,00,14,0.00
2011,07,07,00,15,0.10
2011,07,07,00,16,0.00
2011,07,07,00,17,0.00
2011,07,07,00,18,0.00
2011,07,07,00,19,0.00
2011,07,07,00,20,0.00
2011,07,07,00,21,0.00
2011,07,07,00,22,0.30
2011,07,07,00,23,0.70
2011,07,07,00,24,0.00
2011,07,07,00,25,0.00
2011,07,07,00,26,0.00
2011,07,07,00,27,0.00
2011,07,07,00,28,0.00
2011,07,07,00,29,0.00
2011,07,07,00,30,0.00
2011,07,07,00,31,0.00
2011,07,07,00,32,0.00
2011,07,07,00,33,0.00
2011,07,07,00,34,0.00
2011,07,07,00,35,0.70
2011,07,07,00,36,0.30
2011,07,07,00,37,0.30
2011,07,07,00,38,0.00
2011,07,07,00,39,0.00
2011,07,07,00,40,0.90
2011,07,07,00,41,0.60
2011,07,07,00,42,0.10
2011,07,07,00,43,0.00
2011,07,07,00,44,0.00
2011,07,07,00,45,0.00
2011,07,07,00,46,0.10
2011,07,07,00,47,1.40
2011,07,07,00,48,0.20
2011,07,07,00,49,0.10
2011,07,07,00,50,0.00
2011,07,07,00,51,0.30
2011,07,07,00,52,2.90
2011,07,07,00,53,2.90
2011,07,07,00,54,3.40
2011,07,07,00,55,3.70
2011,07,07,00,56,6.10
2011,07,07,00,57,3.50
2011,07,07,00,58,2.70
2011,07,07,00,59,4.40
2011,07,07,01,00,2.60
2011,07,07,01,01,0.20
2011,07,07,01,02,0.00
2011,07,07,01,03,0.00
2011,07,07,01,04,6.30
2011,07,07,01,05,7.00
2011,07,07,01,06,3.50
2011,07,07,01,07,5.20
2011,07,07,01,08,5.60
2011,07,07,01,09,7.20
2011,07,07,01,10,7.20
2011,07,07,01,11,6.10
2011,07,07,01,12,4.70
2011,07,07,01,13,5.60
2011,07,07,01,14,7.50
2011,07,07,01,15,7.50
2011,07,07,01,16,9.30
2011,07,07,01,17,8.70
2011,07,07,01,18,6.50
2011,07,07,01,19,8.40
2011,07,07,01,20,8.50
2011,07,07,01,21,8.10
2011,07,07,01,22,8.50
2011,07,07,01,23,8.50
2011,07,07,01,24,7.30
2011,07,07,01,25,8.50
2011,07,07,01,26,9.10
2011,07,07,01,27,6.90
2011,07,07,01,28,9.50
2011,07,07,01,29,6.70
2011,07,07,01,30,2.20
2011,07,07,01,31,4.70
2011,07,07,01,32,5.10
2011,07,07,01,33,6.40
2011,07,07,01,34,8.30
2011,07,07,01,35,8.80
2011,07,07,01,36,4.10
2011,07,07,01,37,4.30
2011,07,07,01,38,5.20
2011,07,07,01,39,5.20
2011,07,07,01,40,5.00
2011,07,07,01,41,4.40
2011,07,07,01,42,5.30
2011,07,07,01,43,3.40
2011,07,07,01,44,4.40
2011,07,07,01,45,4.00
2011,07,07,01,46,5.00
2011,07,07,01,47,6.00
2011,07,07,01,48,6.30
2011,07,07,01,49,6.70
2011,07,07,01,50,5.10
2011,07,07,01,51,6.10
2011,07,07,01,52,7.90
2011,07,07,01,53,9.30
2011,07,07,01,54,8.40
2011,07,07,01,55,7.90
2011,07,07,01,56,5.80
2011,07,07,01,57,6.20
2011,07,07,01,58,6.60
2011,07,07,01,59,8.80
2011,07,07,02,00,6.70
2011,07,07,02,01,7.20
2011,07,07,02,02,8.60
2011,07,07,02,03,8.30
2011,07,07,02,04,8.20
2011,07,07,02,05,9.50
2011,07,07,02,06,6.40
2011,07,07,02,07,5.50
2011,07,07,02,08,6.00
2011,07,07,02,09,6.80
2011,07,07,02,10,8.40
2011,07,07,02,11,5.30
2011,07,07,02,12,8.60
2011,07,07,02,13,11.00
2011,07,07,02,14,10.80
2011,07,07,02,15,8.90
2011,07,07,02,16,7.00
2011,07,07,02,17,4.60
2011,07,07,02,18,5.10
2011,07,07,02,19,9.40
2011,07,07,02,20,7.60
2011,07,07,02,21,5.20
2011,07,07,02,22,7.90
2011,07,07,02,23,4.50
2011,07,07,02,24,4.80
2011,07,07,02,25,5.10
2011,07,07,02,26,6.40
2011,07,07,02,27,4.70
2011,07,07,02,28,1.40
2011,07,07,02,29,6.10
2011,07,07,02,30,3.10
2011,07,07,02,31,6.70
2011,07,07,02,32,6.90
2011,07,07,02,33,6.60
2011,07,07,02,34,4.80
2011,07,07,02,35,8.10
2011,07,07,02,36,5.50
2011,07,07,02,37,5.80
2011,07,07,02,38,5.60
2011,07,07,02,39,7.10
2011,07,07,02,40,5.80
2011,07,07,02,41,4.70
2011,07,07,02,42,2.40
2011,07,07,02,43,3.30
2011,07,07,02,44,9.80
2011,07,07,02,45,4.90
2011,07,07,02,46,4.50
2011,07,07,02,47,3.60
2011,07,07,02,48,6.00
2011,07,07,02,49,7.70
2011,07,07,02,50,7.90
2011,07,07,02,51,3.80
2011,07,07,02,52,8.90
2011,07,07,02,53,7.80
2011,07,07,02,54,6.80
2011,07,07,02,55,7.70
2011,07,07,02,56,6.00
2011,07,07,02,57,7.60
2011,07,07,02,58,6.10
2011,07,07,02,59,5.30
2011,07,07,03,00,7.10
2011,07,07,03,01,5.20
2011,07,07,03,02,4.40
2011,07,07,03,03,4.90
2011,07,07,03,04,8.90
2011,07,07,03,05,6.40
2011,07,07,03,06,6.00
2011,07,07,03,07,4.70
2011,07,07,03,08,7.60
2011,07,07,03,09,9.60
2011,07,07,03,10,8.50
2011,07,07,03,11,5.50
2011,07,07,03,12,7.10
2011,07,07,03,13,5.90
2011,07,07,03,14,6.60
2011,07,07,03,15,5.40
2011,07,07,03,16,4.20
2011,07,07,03,17,3.60
2011,07,07,03,18,1.90
2011,07,07,03,19,4.40
2011,07,07,03,20,7.50
2011,07,07,03,21,6.40
2011,07,07,03,22,8.30
2011,07,07,03,23,6.10
2011,07,07,03,24,2.00
2011,07,07,03,25,4.70
2011,07,07,03,26,5.40
2011,07,07,03,27,5.90
2011,07,07,03,28,8.00
2011,07,07,03,29,7.60
2011,07,07,03,30,9.90
2011,07,07,03,31,9.60
2011,07,07,03,32,8.90
2011,07,07,03,33,6.10
2011,07,07,03,34,7.90
2011,07,07,03,35,12.20
2011,07,07,03,36,8.50
2011,07,07,03,37,8.80
2011,07,07,03,38,5.40
2011,07,07,03,39,12.80
2011,07,07,03,40,10.90
2011,07,07,03,41,7.90
2011,07,07,03,42,8.10
2011,07,07,03,43,6.60
2011,07,07,03,44,5.90
2011,07,07,03,45,8.60
2011,07,07,03,46,5.10
2011,07,07,03,47,5.70
2011,07,07,03,48,8.40
2011,07,07,03,49,9.40
2011,07,07,03,50,3.80
2011,07,07,03,51,8.60
2011,07,07,03,52,8.80
2011,07,07,03,53,9.20
2011,07,07,03,54,8.40
2011,07,07,03,55,6.90
2011,07,07,03,56,8.10
2011,07,07,03,57,8.80
2011,07,07,03,58,8.10
2011,07,07,03,59,7.70
2011,07,07,04,00,7.10
2011,07,07,04,01,11.00
2011,07,07,04,02,11.30
2011,07,07,04,03,7.60
2011,07,07,04,04,7.80
2011,07,07,04,05,9.20
2011,07,07,04,06,8.80
2011,07,07,04,07,6.10
2011,07,07,04,08,6.30
2011,07,07,04,09,2.20
2011,07,07,04,10,9.30
2011,07,07,04,11,5.30
2011,07,07,04,12,5.60
2011,07,07,04,13,6.20
2011,07,07,04,14,7.30
2011,07,07,04,15,5.30
2011,07,07,04,16,4.10
2011,07,07,04,17,6.00
2011,07,07,04,18,7.20
2011,07,07,04,19,8.10
2011,07,07,04,20,5.90
2011,07,07,04,21,7.50
2011,07,07,04,22,8.00
2011,07,07,04,23,7.80
2011,07,07,04,24,8.20
2011,07,07,04,25,12.60
2011,07,07,04,26,10.20
2011,07,07,04,27,10.30
2011,07,07,04,28,13.60
2011,07,07,04,29,12.30
2011,07,07,04,30,11.00
2011,07,07,04,31,9.70
2011,07,07,04,32,10.40
2011,07,07,04,33,12.30
2011,07,07,04,34,12.00
2011,07,07,04,35,12.10
2011,07,07,04,36,9.20
2011,07,07,04,37,7.30
2011,07,07,04,38,7.60
2011,07,07,04,39,5.40
2011,07,07,04,40,7.30
2011,07,07,04,41,8.60
2011,07,07,04,42,9.60
2011,07,07,04,43,11.60
2011,07,07,04,44,10.10
2011,07,07,04,45,8.70
2011,07,07,04,46,6.40
2011,07,07,04,47,4.20
2011,07,07,04,48,7.80
2011,07,07,04,49,8.90
2011,07,07,04,50,6.40
2011,07,07,04,51,9.50
2011,07,07,04,52,7.50
2011,07,07,04,53,8.50
2011,07,07,04,54,6.70
2011,07,07,04,55,8.00
2011,07,07,04,56,6.90
2011,07,07,04,57,7.10
2011,07,07,04,58,7.50
2011,07,07,04,59,6.50
2011,07,07,05,00,8.30
2011,07,07,05,01,7.90
2011,07,07,05,02,7.40
2011,07,07,05,03,8.40
2011,07,07,05,04,8.00
2011,07,07,05,05,4.80
2011,07,07,05,06,7.50
2011,07,07,05,07,7.20
2011,07,07,05,08,8.50
2011,07,07,05,09,7.10
2011,07,07,05,10,5.70
2011,07,07,05,11,10.10
2011,07,07,05,12,8.70
2011,07,07,05,13,7.30
2011,07,07,05,14,10.50
2011,07,07,05,15,8.90
2011,07,07,05,16,6.80
2011,07,07,05,17,6.80
2011,07,07,05,18,10.70
2011,07,07,05,19,9.90
2011,07,07,05,20,8.50
2011,07,07,05,21,10.00
2011,07,07,05,22,9.10
2011,07,07,05,23,8.10
2011,07,07,05,24,11.80
2011,07,07,05,25,10.50
2011,07,07,05,26,10.10
2011,07,07,05,27,6.30
2011,07,07,05,28,7.40
2011,07,07,05,29,9.30
2011,07,07,05,30,9.70
2011,07,07,05,31,5.50
2011,07,07,05,32,8.00
2011,07,07,05,33,8.40
2011,07,07,05,34,9.40
2011,07,07,05,35,6.40
2011,07,07,05,36,3.10
2011,07,07,05,37,6.70
2011,07,07,05,38,5.60
2011,07,07,05,39,6.00
2011,07,07,05,40,6.70
2011,07,07,05,41,8.00
2011,07,07,05,42,5.90
2011,07,07,05,43,10.10
2011,07,07,05,44,11.00
2011,07,07,05,45,11.90
2011,07,07,05,46,10.10
2011,07,07,05,47,6.50
2011,07,07,05,48,8.20
2011,07,07,05,49,5.60
2011,07,07,05,50,5.00
2011,07,07,05,51,5.40
2011,07,07,05,52,5.90
2011,07,07,05,53,7.80
2011,07,07,05,54,7.30
2011,07,07,05,55,5.40
2011,07,07,05,56,7.70
2011,07,07,05,57,5.60
2011,07,07,05,58,6.80
2011,07,07,05,59,6.80
2011,07,07,06,00,8.80
2011,07,07,06,01,7.90
2011,07,07,06,02,6.70
2011,07,07,06,03,7.10
2011,07,07,06,04,7.50
2011,07,07,06,05,6.50
2011,07,07,06,06,7.30
2011,07,07,06,07,7.20
2011,07,07,06,08,6.40
2011,07,07,06,09,5.60
2011,07,07,06,10,3.60
2011,07,07,06,11,7.80
2011,07,07,06,12,6.50
2011,07,07,06,13,5.20
2011,07,07,06,14,8.00
2011,07,07,06,15,5.50
2011,07,07,06,16,5.60
2011,07,07,06,17,2.40
2011,07,07,06,18,6.40
2011,07,07,06,19,3.90
2011,07,07,06,20,5.10
2011,07,07,06,21,3.90
2011,07,07,06,22,5.90
2011,07,07,06,23,5.50
2011,07,07,06,24,6.80
2011,07,07,06,25,4.70
2011,07,07,06,26,2.70
2011,07,07,06,27,3.90
2011,07,07,06,28,6.80
2011,07,07,06,29,6.00
2011,07,07,06,30,3.70
2011,07,07,06,31,2.40
2011,07,07,06,32,3.50
2011,07,07,06,33,2.10
2011,07,07,06,34,2.80
2011,07,07,06,35,7.30
2011,07,07,06,36,3.20
2011,07,07,06,37,5.40
2011,07,07,06,38,4.30
2011,07,07,06,39,4.40
2011,07,07,06,40,4.40
2011,07,07,06,41,4.20
2011,07,07,06,42,6.70
2011,07,07,06,43,4.90
2011,07,07,06,44,7.00
2011,07,07,06,45,8.10
2011,07,07,06,46,3.20
2011,07,07,06,47,1.60
2011,07,07,06,48,5.50
2011,07,07,06,49,5.00
2011,07,07,06,50,4.70
2011,07,07,06,51,8.00
2011,07,07,06,52,5.50
2011,07,07,06,53,2.30
2011,07,07,06,54,2.30
2011,07,07,06,55,0.80
2011,07,07,06,56,0.60
2011,07,07,06,57,2.30
2011,07,07,06,58,2.30
2011,07,07,06,59,0.10
2011,07,07,07,00,4.90
2011,07,07,07,01,8.90
2011,07,07,07,02,7.90
2011,07,07,07,03,6.40
2011,07,07,07,04,7.20
2011,07,07,07,05,3.50
2011,07,07,07,06,4.20
2011,07,07,07,07,10.50
2011,07,07,07,08,9.10
2011,07,07,07,09,6.40
2011,07,07,07,10,5.70
2011,07,07,07,11,4.50
2011,07,07,07,12,7.30
2011,07,07,07,13,10.80
2011,07,07,07,14,5.60
2011,07,07,07,15,6.70
2011,07,07,07,16,2.40
2011,07,07,07,17,2.70
2011,07,07,07,18,5.20
2011,07,07,07,19,3.00
2011,07,07,07,20,9.50
2011,07,07,07,21,6.80
2011,07,07,07,22,4.90
2011,07,07,07,23,6.20
2011,07,07,07,24,8.90
2011,07,07,07,25,7.10
2011,07,07,07,26,4.10
2011,07,07,07,27,4.00
2011,07,07,07,28,3.10
2011,07,07,07,29,5.90
2011,07,07,07,30,5.90
2011,07,07,07,31,5.50
2011,07,07,07,32,10.70
2011,07,07,07,33,9.30
2011,07,07,07,34,10.20
2011,07,07,07,35,5.70
2011,07,07,07,36,8.10
2011,07,07,07,37,6.00
2011,07,07,07,38,5.10
2011,07,07,07,39,5.80
2011,07,07,07,40,11.40
2011,07,07,07,41,12.20
2011,07,07,07,42,13.40
2011,07,07,07,43,4.10
2011,07,07,07,44,7.20
2011,07,07,07,45,14.80
2011,07,07,07,46,11.00
2011,07,07,07,47,8.90
2011,07,07,07,48,3.40
2011,07,07,07,49,7.20
2011,07,07,07,50,5.80
2011,07,07,07,51,6.70
2011,07,07,07,52,10.00
2011,07,07,07,53,8.50
2011,07,07,07,54,7.30
2011,07,07,07,55,4.30
2011,07,07,07,56,7.20
2011,07,07,07,57,6.10
2011,07,07,07,58,8.80
2011,07,07,07,59,8.20
2011,07,07,08,00,2.60
2011,07,07,08,01,8.90
2011,07,07,08,02,8.10
2011,07,07,08,03,5.30
2011,07,07,08,04,4.70
2011,07,07,08,05,6.40
2011,07,07,08,06,9.90
2011,07,07,08,07,8.00
2011,07,07,08,08,9.30
2011,07,07,08,09,7.40
2011,07,07,08,10,7.30
2011,07,07,08,11,8.50
2011,07,07,08,12,10.50
2011,07,07,08,13,13.00
2011,07,07,08,14,7.80
2011,07,07,08,15,4.20
2011,07,07,08,16,4.40
2011,07,07,08,17,10.50
2011,07,07,08,18,9.70
2011,07,07,08,19,8.50
2011,07,07,08,20,7.30
2011,07,07,08,21,3.20
2011,07,07,08,22,9.00
2011,07,07,08,23,7.90
2011,07,07,08,24,10.80
2011,07,07,08,25,6.30
2011,07,07,08,26,8.10
2011,07,07,08,27,8.90
2011,07,07,08,28,10.10
2011,07,07,08,29,11.50
2011,07,07,08,30,12.70
2011,07,07,08,31,7.70
2011,07,07,08,32,12.30
2011,07,07,08,33,8.40
2011,07,07,08,34,6.40
2011,07,07,08,35,11.70
2011,07,07,08,36,9.40
2011,07,07,08,37,11.20
2011,07,07,08,38,11.40
2011,07,07,08,39,14.20
2011,07,07,08,40,5.20
2011,07,07,08,41,10.60
2011,07,07,08,42,11.80
2011,07,07,08,43,8.90
2011,07,07,08,44,6.40
2011,07,07,08,45,9.30
2011,07,07,08,46,6.60
2011,07,07,08,47,7.10
2011,07,07,08,48,10.90
2011,07,07,08,49,13.50
2011,07,07,08,50,10.30
2011,07,07,08,51,12.80
2011,07,07,08,52,9.70
2011,07,07,08,53,9.90
2011,07,07,08,54,13.00
2011,07,07,08,55,10.80
2011,07,07,08,56,11.60
2011,07,07,08,57,14.10
2011,07,07,08,58,7.10
2011,07,07,08,59,3.20
2011,07,07,09,00,8.40
2011,07,07,09,01,7.50
2011,07,07,09,02,5.30
2011,07,07,09,03,5.70
2011,07,07,09,04,10.80
2011,07,07,09,05,13.80
2011,07,07,09,06,12.90
2011,07,07,09,07,5.10
2011,07,07,09,08,9.30
2011,07,07,09,09,5.70
2011,07,07,09,10,9.40
2011,07,07,09,11,5.00
2011,07,07,09,12,11.10
2011,07,07,09,13,8.10
2011,07,07,09,14,9.30
2011,07,07,09,15,18.10
2011,07,07,09,16,8.40
2011,07,07,09,17,6.00
2011,07,07,09,18,7.30
2011,07,07,09,19,9.30
2011,07,07,09,20,12.20
2011,07,07,09,21,15.10
2011,07,07,09,22,14.00
2011,07,07,09,23,13.20
2011,07,07,09,24,12.90
2011,07,07,09,25,13.20
2011,07,07,09,26,11.20
2011,07,07,09,27,13.70
2011,07,07,09,28,9.00
2011,07,07,09,29,7.20
2011,07,07,09,30,7.00
2011,07,07,09,31,6.90
2011,07,07,09,32,12.10
2011,07,07,09,33,12.60
2011,07,07,09,34,15.50
2011,07,07,09,35,21.40
2011,07,07,09,36,11.40
2011,07,07,09,37,14.90
2011,07,07,09,38,10.50
2011,07,07,09,39,8.10
2011,07,07,09,40,8.60
2011,07,07,09,41,13.20
2011,07,07,09,42,10.60
2011,07,07,09,43,11.70
2011,07,07,09,44,8.20
2011,07,07,09,45,8.80
2011,07,07,09,46,7.60
2011,07,07,09,47,15.00
2011,07,07,09,48,12.60
2011,07,07,09,49,6.30
2011,07,07,09,50,10.10
2011,07,07,09,51,11.60
2011,07,07,09,52,14.00
2011,07,07,09,53,10.40
2011,07,07,09,54,16.90
2011,07,07,09,55,14.70
2011,07,07,09,56,14.60
2011,07,07,09,57,10.90
2011,07,07,09,58,9.30
2011,07,07,09,59,12.70
2011,07,07,10,00,16.20
2011,07,07,10,01,9.90
2011,07,07,10,02,15.20
2011,07,07,10,03,10.90
2011,07,07,10,04,10.40
2011,07,07,10,05,12.90
2011,07,07,10,06,10.90
2011,07,07,10,07,15.00
2011,07,07,10,08,10.00
2011,07,07,10,09,7.60
2011,07,07,10,10,10.40
2011,07,07,10,11,8.20
2011,07,07,10,12,13.10
2011,07,07,10,13,9.40
2011,07,07,10,14,11.10
2011,07,07,10,15,9.20
2011,07,07,10,16,6.50
2011,07,07,10,17,9.20
2011,07,07,10,18,10.40
2011,07,07,10,19,13.30
2011,07,07,10,20,14.30
2011,07,07,10,21,9.60
2011,07,07,10,22,14.60
2011,07,07,10,23,11.60
2011,07,07,10,24,12.60
2011,07,07,10,25,17.30
2011,07,07,10,26,14.30
2011,07,07,10,27,15.30
2011,07,07,10,28,15.40
2011,07,07,10,29,13.10
2011,07,07,10,30,13.70
2011,07,07,10,31,12.90
2011,07,07,10,32,10.50
2011,07,07,10,33,10.80
2011,07,07,10,34,15.40
2011,07,07,10,35,9.80
2011,07,07,10,36,7.30
2011,07,07,10,37,15.20
2011,07,07,10,38,13.60
2011,07,07,10,39,12.30
2011,07,07,10,40,10.40
2011,07,07,10,41,14.90
2011,07,07,10,42,13.40
2011,07,07,10,43,16.90
2011,07,07,10,44,14.90
2011,07,07,10,45,14.00
2011,07,07,10,46,10.70
2011,07,07,10,47,11.30
2011,07,07,10,48,11.90
2011,07,07,10,49,9.30
2011,07,07,10,50,10.20
2011,07,07,10,51,7.60
2011,07,07,10,52,10.70
2011,07,07,10,53,3.20
2011,07,07,10,54,10.10
2011,07,07,10,55,10.40
2011,07,07,10,56,6.60
2011,07,07,10,57,10.50
2011,07,07,10,58,15.50
2011,07,07,10,59,10.90
2011,07,07,11,00,11.30
2011,07,07,11,01,9.20
2011,07,07,11,02,17.00
2011,07,07,11,03,12.10
2011,07,07,11,04,12.30
2011,07,07,11,05,12.00
2011,07,07,11,06,16.20
2011,07,07,11,07,14.70
2011,07,07,11,08,13.60
2011,07,07,11,09,11.70
2011,07,07,11,10,10.50
2011,07,07,11,11,18.60
2011,07,07,11,12,15.20
2011,07,07,11,13,15.70
2011,07,07,11,14,12.90
2011,07,07,11,15,16.80
2011,07,07,11,16,10.90
2011,07,07,11,17,11.40
2011,07,07,11,18,13.50
2011,07,07,11,19,9.80
2011,07,07,11,20,10.40
2011,07,07,11,21,13.80
2011,07,07,11,22,11.10
2011,07,07,11,23,13.60
2011,07,07,11,24,11.90
2011,07,07,11,25,14.20
2011,07,07,11,26,12.20
2011,07,07,11,27,16.80
2011,07,07,11,28,9.30
2011,07,07,11,29,6.40
2011,07,07,11,30,9.00
2011,07,07,11,31,15.70
2011,07,07,11,32,19.40
2011,07,07,11,33,17.10
2011,07,07,11,34,15.70
2011,07,07,11,35,11.30
2011,07,07,11,36,15.50
2011,07,07,11,37,16.20
2011,07,07,11,38,14.00
2011,07,07,11,39,16.10
2011,07,07,11,40,12.10
2011,07,07,11,41,16.40
2011,07,07,11,42,14.60
2011,07,07,11,43,24.10
2011,07,07,11,44,18.20
2011,07,07,11,45,14.00
2011,07,07,11,46,13.40
2011,07,07,11,47,16.80
2011,07,07,11,48,16.40
2011,07,07,11,49,21.20
2011,07,07,11,50,16.90
2011,07,07,11,51,12.70
2011,07,07,11,52,17.50
2011,07,07,11,53,22.00
2011,07,07,11,54,21.60
2011,07,07,11,55,22.60
2011,07,07,11,56,12.90
2011,07,07,11,57,14.80
2011,07,07,11,58,19.60
2011,07,07,11,59,12.80
2011,07,07,12,00,19.80
2011,07,07,12,01,15.90
2011,07,07,12,02,22.40
2011,07,07,12,03,10.80
2011,07,07,12,04,9.70
2011,07,07,12,05,16.00
2011,07,07,12,06,15.80
2011,07,07,12,07,17.00
2011,07,07,12,08,19.60
2011,07,07,12,09,18.40
2011,07,07,12,10,10.10
2011,07,07,12,11,17.20
2011,07,07,12,12,14.60
2011,07,07,12,13,20.90
2011,07,07,12,14,17.20
2011,07,07,12,15,17.50
2011,07,07,12,16,14.60
2011,07,07,12,17,24.10
2011,07,07,12,18,20.70
2011,07,07,12,19,20.60
2011,07,07,12,20,23.70
2011,07,07,12,21,25.00
2011,07,07,12,22,14.80
2011,07,07,12,23,18.20
2011,07,07,12,24,14.50
2011,07,07,12,25,6.60
2011,07,07,12,26,9.10
2011,07,07,12,27,17.40
2011,07,07,12,28,20.90
2011,07,07,12,29,16.60
2011,07,07,12,30,17.10
2011,07,07,12,31,23.10
2011,07,07,12,32,18.70
2011,07,07,12,33,16.30
2011,07,07,12,34,18.70
2011,07,07,12,35,11.20
2011,07,07,12,36,18.30
2011,07,07,12,37,20.50
2011,07,07,12,38,18.00
2011,07,07,12,39,22.30
2011,07,07,12,40,14.80
2011,07,07,12,41,15.80
2011,07,07,12,42,19.60
2011,07,07,12,43,25.00
2011,07,07,12,44,11.90
2011,07,07,12,45,15.30
2011,07,07,12,46,8.50
2011,07,07,12,47,14.50
2011,07,07,12,48,16.90
2011,07,07,12,49,16.80
2011,07,07,12,50,18.30
2011,07,07,12,51,16.30
2011,07,07,12,52,16.90
2011,07,07,12,53,13.10
2011,07,07,12,54,20.40
2011,07,07,12,55,17.00
2011,07,07,12,56,16.70
2011,07,07,12,57,16.70
2011,07,07,12,58,17.50
2011,07,07,12,59,23.50
2011,07,07,13,00,15.60
2011,07,07,13,01,12.60
2011,07,07,13,02,10.10
2011,07,07,13,03,24.80
2011,07,07,13,04,16.70
2011,07,07,13,05,7.90
2011,07,07,13,06,9.40
2011,07,07,13,07,11.80
2011,07,07,13,08,8.30
2011,07,07,13,09,12.70
2011,07,07,13,10,17.80
2011,07,07,13,11,25.30
2011,07,07,13,12,19.80
2011,07,07,13,13,19.90
2011,07,07,13,14,19.50
2011,07,07,13,15,22.30
2011,07,07,13,16,7.70
2011,07,07,13,17,10.00
2011,07,07,13,18,15.90
2011,07,07,13,19,21.20
2011,07,07,13,20,20.20
2011,07,07,13,21,21.00
2011,07,07,13,22,21.40
2011,07,07,13,23,16.50
2011,07,07,13,24,16.40
2011,07,07,13,25,25.30
2011,07,07,13,26,23.70
2011,07,07,13,27,22.00
2011,07,07,13,28,22.00
2011,07,07,13,29,20.20
2011,07,07,13,30,19.10
2011,07,07,13,31,12.60
2011,07,07,13,32,19.60
2011,07,07,13,33,21.00
2011,07,07,13,34,18.70
2011,07,07,13,35,20.50
2011,07,07,13,36,19.50
2011,07,07,13,37,23.00
2011,07,07,13,38,14.80
2011,07,07,13,39,18.30
2011,07,07,13,40,14.60
2011,07,07,13,41,17.50
2011,07,07,13,42,12.50
2011,07,07,13,43,16.30
2011,07,07,13,44,16.50
2011,07,07,13,45,25.10
2011,07,07,13,46,18.40
2011,07,07,13,47,24.90
2011,07,07,13,48,13.40
2011,07,07,13,49,19.50
2011,07,07,13,50,22.90
2011,07,07,13,51,12.50
2011,07,07,13,52,21.80
2011,07,07,13,53,23.40
2011,07,07,13,54,23.10
2011,07,07,13,55,13.60
2011,07,07,13,56,18.90
2011,07,07,13,57,20.30
2011,07,07,13,58,27.60
2011,07,07,13,59,22.80
2011,07,07,14,00,27.70
2011,07,07,14,01,24.10
2011,07,07,14,02,18.30
2011,07,07,14,03,13.60
2011,07,07,14,04,23.20
2011,07,07,14,05,15.90
2011,07,07,14,06,19.00
2011,07,07,14,07,24.50
2011,07,07,14,08,15.40
2011,07,07,14,09,18.90
2011,07,07,14,10,18.80
2011,07,07,14,11,24.10
2011,07,07,14,12,17.70
2011,07,07,14,13,11.10
2011,07,07,14,14,19.70
2011,07,07,14,15,12.80
2011,07,07,14,16,15.50
2011,07,07,14,17,18.90
2011,07,07,14,18,23.50
2011,07,07,14,19,26.20
2011,07,07,14,20,17.40
2011,07,07,14,21,16.20
2011,07,07,14,22,20.10
2011,07,07,14,23,20.80
2011,07,07,14,24,11.80
2011,07,07,14,25,29.90
2011,07,07,14,26,15.70
2011,07,07,14,27,20.40
2011,07,07,14,28,28.10
2011,07,07,14,29,22.30
2011,07,07,14,30,26.20
2011,07,07,14,31,25.60
2011,07,07,14,32,19.70
2011,07,07,14,33,21.20
2011,07,07,14,34,18.30
2011,07,07,14,35,18.80
2011,07,07,14,36,21.80
2011,07,07,14,37,20.80
2011,07,07,14,38,25.40
2011,07,07,14,39,16.90
2011,07,07,14,40,19.20
2011,07,07,14,41,16.60
2011,07,07,14,42,18.30
2011,07,07,14,43,23.20
2011,07,07,14,44,16.70
2011,07,07,14,45,22.10
2011,07,07,14,46,28.10
2011,07,07,14,47,25.10
2011,07,07,14,48,19.00
2011,07,07,14,49,23.40
2011,07,07,14,50,16.30
2011,07,07,14,51,25.00
2011,07,07,14,52,13.90
2011,07,07,14,53,18.60
2011,07,07,14,54,21.90
2011,07,07,14,55,27.40
2011,07,07,14,56,20.90
2011,07,07,14,57,19.40
2011,07,07,14,58,17.50
2011,07,07,14,59,27.00
2011,07,07,15,00,25.70
2011,07,07,15,01,19.90
2011,07,07,15,02,13.60
2011,07,07,15,03,16.00
2011,07,07,15,04,17.60
2011,07,07,15,05,29.50
2011,07,07,15,06,29.50
2011,07,07,15,07,22.50
2011,07,07,15,08,24.10
2011,07,07,15,09,24.50
2011,07,07,15,10,21.40
2011,07,07,15,11,25.60
2011,07,07,15,12,23.30
2011,07,07,15,13,19.00
2011,07,07,15,14,26.60
2011,07,07,15,15,20.00
2011,07,07,15,16,28.30
2011,07,07,15,17,25.30
2011,07,07,15,18,27.90
2011,07,07,15,19,29.20
2011,07,07,15,20,29.70
2011,07,07,15,21,24.00
2011,07,07,15,22,30.00
2011,07,07,15,23,36.10
2011,07,07,15,24,29.10
2011,07,07,15,25,33.40
2011,07,07,15,26,28.50
2011,07,07,15,27,30.10
2011,07,07,15,28,32.70
2011,07,07,15,29,31.70
2011,07,07,15,30,34.00
2011,07,07,15,31,29.00
2011,07,07,15,32,30.30
2011,07,07,15,33,27.00
2011,07,07,15,34,29.40
2011,07,07,15,35,22.30
2011,07,07,15,36,23.10
2011,07,07,15,37,25.50
2011,07,07,15,38,28.80
2011,07,07,15,39,25.70
2011,07,07,15,40,20.90
2011,07,07,15,41,16.10
2011,07,07,15,42,18.40
2011,07,07,15,43,21.90
2011,07,07,15,44,24.60
2011,07,07,15,45,29.00
2011,07,07,15,46,25.40
2011,07,07,15,47,26.70
2011,07,07,15,48,20.40
2011,07,07,15,49,28.00
2011,07,07,15,50,32.20
2011,07,07,15,51,27.90
2011,07,07,15,52,20.90
2011,07,07,15,53,17.50
2011,07,07,15,54,16.40
2011,07,07,15,55,22.80
2011,07,07,15,56,23.20
2011,07,07,15,57,21.60
2011,07,07,15,58,19.80
2011,07,07,15,59,22.40
2011,07,07,16,00,28.70
2011,07,07,16,01,32.20
2011,07,07,16,02,29.20
2011,07,07,16,03,22.80
2011,07,07,16,04,22.70
2011,07,07,16,05,29.00
2011,07,07,16,06,29.40
2011,07,07,16,07,29.90
2011,07,07,16,08,30.30
2011,07,07,16,09,34.80
2011,07,07,16,10,18.00
2011,07,07,16,11,29.10
2011,07,07,16,12,30.80
2011,07,07,16,13,30.50
2011,07,07,16,14,37.70
2011,07,07,16,15,26.70
2011,07,07,16,16,24.90
2011,07,07,16,17,18.20
2011,07,07,16,18,21.50
2011,07,07,16,19,27.30
2011,07,07,16,20,29.00
2011,07,07,16,21,23.70
2011,07,07,16,22,26.00
2011,07,07,16,23,24.90
2011,07,07,16,24,26.20
2011,07,07,16,25,25.10
2011,07,07,16,26,25.00
2011,07,07,16,27,33.60
2011,07,07,16,28,21.80
2011,07,07,16,29,30.70
2011,07,07,16,30,36.70
2011,07,07,16,31,28.60
2011,07,07,16,32,32.00
2011,07,07,16,33,29.50
2011,07,07,16,34,27.60
2011,07,07,16,35,22.50
2011,07,07,16,36,32.70
2011,07,07,16,37,26.30
2011,07,07,16,38,30.20
2011,07,07,16,39,27.70
2011,07,07,16,40,31.60
2011,07,07,16,41,32.90
2011,07,07,16,42,36.90
2011,07,07,16,43,33.80
2011,07,07,16,44,33.90
2011,07,07,16,45,33.50
2011,07,07,16,46,37.60
2011,07,07,16,47,30.70
2011,07,07,16,48,33.80
2011,07,07,16,49,19.70
2011,07,07,16,50,24.10
2011,07,07,16,51,20.60
2011,07,07,16,52,25.60
2011,07,07,16,53,21.50
2011,07,07,16,54,35.10
2011,07,07,16,55,28.00
2011,07,07,16,56,31.10
2011,07,07,16,57,33.50
2011,07,07,16,58,25.00
2011,07,07,16,59,28.50
2011,07,07,17,00,28.10
2011,07,07,17,01,28.90
2011,07,07,17,02,38.20
2011,07,07,17,03,28.70
2011,07,07,17,04,41.80
2011,07,07,17,05,40.20
2011,07,07,17,06,35.20
2011,07,07,17,07,29.60
2011,07,07,17,08,39.00
2011,07,07,17,09,33.80
2011,07,07,17,10,36.80
2011,07,07,17,11,28.90
2011,07,07,17,12,28.50
2011,07,07,17,13,24.80
2011,07,07,17,14,20.40
2011,07,07,17,15,25.00
2011,07,07,17,16,22.80
2011,07,07,17,17,22.50
2011,07,07,17,18,16.30
2011,07,07,17,19,23.60
2011,07,07,17,20,23.40
2011,07,07,17,21,23.70
2011,07,07,17,22,15.40
2011,07,07,17,23,26.30
2011,07,07,17,24,22.60
2011,07,07,17,25,21.00
2011,07,07,17,26,16.50
2011,07,07,17,27,28.00
2011,07,07,17,28,17.80
2011,07,07,17,29,19.60
2011,07,07,17,30,25.40
2011,07,07,17,31,30.50
2011,07,07,17,32,18.10
2011,07,07,17,33,22.90
2011,07,07,17,34,19.30
2011,07,07,17,35,14.20
2011,07,07,17,36,24.90
2011,07,07,17,37,30.30
2011,07,07,17,38,28.50
2011,07,07,17,39,37.70
2011,07,07,17,40,27.00
2011,07,07,17,41,26.30
2011,07,07,17,42,20.90